Regional Weather Roundup
Issued by NWS Wakefield, VA

Home | Current Version | Previous Version | Graphics & Text | Print | Product List | Glossary On
Versions: 1 2 3 4 5 6 7 8 9 10 11 12 13 14 15 16 17 18 19 20 21 22 23 24 25 26 27 28 29 30 31 32 33 34 35 36 37 38 39 40 41 42 43 44 45 46 47 48 49
000
ASUS41 KAKQ 260310
RWRAKQ

REGIONAL WEATHER ROUNDUP
NATIONAL WEATHER SERVICE WAKEFIELD VA
1000 PM EST WED FEB 25 2015

Note: "fair" indicates few or no clouds below 12,000 feet with no
significant weather and/or obstructions to visibility. * = Denotes
station may not report precipitation (e.g., rain,snow,etc.),
thunder or fog.

VAZ042-051-052>054-056-260400-
NORTHERN VIRGINIA

CITY           SKY/WX    TMP DP  RH WIND       PRES   REMARKS
WASH NATIONAL  CLOUDY    36  18  48 SE6       29.96F
DULLES         CLOUDY    32  17  54 SE6       29.93F
FORT BELVOIR   FAIR      32  20  62 NE2       29.94F
QUANTICO       FAIR      35  20  54 CALM      29.94F
FREDERICKSBRG* FAIR      36  23  59 E9        29.91F
STAFFORD*      FAIR      33  19  56 E6        29.95F
WARRENTON      FAIR      34  24  67 E6        29.89F
CULPEPER*      FAIR      32  23  69 CALM      29.89F
MANASSAS*      NOT AVBL
LEESBURG*      FAIR      32  25  74 CALM      29.93S
WINCHESTER     FAIR      32  16  51 CALM      29.89R
FRONT ROYAL*   FAIR      32  19  59 CALM      29.87S
LURAY*         FAIR      32  27  80 CALM      29.85F
$$

VAZ048-049-060>072-079>083-260400-
CENTRAL AND SOUTH CENTRAL VIRGINIA

CITY           SKY/WX    TMP DP  RH WIND       PRES   REMARKS
RICHMOND       CLOUDY    36  19  50 SE9       29.91F
CHESTERFIELD*  FAIR      37  14  38 SE7       29.91F
PETERSBURG*    MOCLDY    38  21  49 SE7       29.91F
HANOVER        FAIR      36  17  46 SE5       29.93F
TAPPAHANNOCK*  FAIR      33  18  53 E3        29.93F
QUINTON*       FAIR      35  18  50 SE6       29.91F
CHARLOTTSVILLE FAIR      34  17  50 N3        29.89R
GORDONSVILLE*  FAIR      31  23  71 CALM      29.89F
ORANGE*        FAIR      32  27  80 CALM      29.90F
LOUISA*        FAIR      36  19  51 E3        29.87F
BUMPASS*       FAIR      34  17  50 E6        29.88F
FARMVILLE*     FAIR      38  17  42 E3        29.89R
CREWE*         FAIR      36  20  52 SE3       29.88R
FORT PICKETT*  MOCLDY    36  23  59 SE7       29.89R
CHASE CITY*    CLOUDY    39  24  55 SE5       29.89R
CLARKSVILLE*   CLOUDY    37  23  56 SE5       29.87R
SOUTH HILL*    CLOUDY    36  22  56 S3        29.94R
LAWRENCEVILLE* CLOUDY    36  24  60 SE5       29.88F
EMPORIA*       CLOUDY    34  19  55 E9        29.92F
$$

VAZ088>098-260400-
SOUTHEAST VIRGINIA

CITY           SKY/WX    TMP DP  RH WIND       PRES   REMARKS
NORFOLK        CLOUDY    35  19  52 SE7       29.96F
VIRGINIA BEACH CLOUDY    36  23  59 SE6       29.96F
NORFOLK NAVAL  CLOUDY    38  19  46 SE7       29.96F
WEST POINT*    FAIR      37  17  45 E7        29.94F
SALUDA*        FAIR      33  21  63 SE6       29.94F
NEWPORT NEWS   MOCLDY    38  19  46 SE8       29.94F
LANGLEY AFB    FAIR      35  19  52 SE6       29.95F
FORT EUSTIS    FAIR      36  21  55 S9        29.92F
WILLIAMSBURG*  FAIR      37  25  60 SE10      29.94F
HR EXEC AP*    CLOUDY    34  19  55 SE6       29.97F
FRANKLIN*      CLOUDY    35  21  57 E6        29.93F
WAKEFIELD      MOCLDY    36  17  46 VRB3      29.92F
$$

VAZ020-022-025-037-045-260400-
WEST CENTRAL AND SOUTHWEST VIRGINIA

CITY           SKY/WX    TMP DP  RH WIND       PRES   REMARKS
STAUNTON*      FAIR      31  21  65 CALM      29.91R
WAYNESBORO*    FAIR      32  19  58 CALM      29.86R
HOT SPRINGS VA CLOUDY    27  12  54 CALM      29.77R
LYNCHBURG      MOCLDY    34  21  59 CALM      29.92R
DANVILLE       CLOUDY    38  21  50 E3        29.87R
SOUTH BOSTON*  CLOUDY    38  16  41 CALM      29.91R
MARTINSVILLE   CLOUDY    35  24  63 CALM      29.86F
ROANOKE        CLOUDY    35  19  52 CALM      29.89R
BLACKSBURG     CLOUDY    33  19  56 E6        29.83F
DUBLIN*        CLOUDY    33  23  65 CALM      29.81F
MARION*        FLURRIES  33  19  56 E8        29.78F
HILLSVILLE*    LGT SNOW  28  26  90 E3        29.76F VSB 1
RICHLANDS*     CLOUDY    33  18  53 SE5       29.73F
WISE*          LGT SNOW  30  19  64 N6        29.73F
ABINGDON*      FLURRIES  36  26  67 SE7       29.72F
$$

MDZ021>025-VAZ099-100-260400-
SOUTHERN MARYLAND AND THE DELMARVA PENINSULA

CITY           SKY/WX    TMP DP  RH WIND       PRES   REMARKS
PATUXENT RIVER CLOUDY    32  24  72 E7        29.95F
BAY BRIDGE APT   N/A     32  21  64 SE5       29.97S
LEONARDTOWN    FAIR      32  19  59 NE3       29.95F
DOVER          FAIR      30  22  70 SE2       29.96F
GEORGETOWN     FAIR      29  23  78 SE3       29.98F
EASTON         FAIR      33  23  66 CALM      30.00F
CAMBRIDGE      FAIR      32  25  74 E3        29.96F
SALISBURY      FAIR      32  24  72 E3        29.98F
OCEAN CITY     FAIR      32  26  78 S3        30.00S
WALLOPS ISLAND FAIR      31  27  85 SE7       29.99F
ACCOMACK*      FAIR      32  25  74 SE6       29.97F
$$

NCZ012>017-030>032-260400-
NORTH CENTRAL AND EASTERN NORTH CAROLINA

CITY           SKY/WX    TMP DP  RH WIND       PRES   REMARKS
ROANOKE RAPIDS CLOUDY    36  23  60 E6        29.91F
RALEIGH        LGT SNOW  34  30  86 CALM      29.88F FOG
ELIZABETH CITY NOT AVBL
AHOSKIE*       MOCLDY    34  17  49 SE6       29.94F
EDENTON*       CLOUDY    36  27  69 SE6       29.94F
CURRITUCK*     CLOUDY    34  26  74 CALM      29.99F
KILL DEVIL HLS CLOUDY    33  31  92 CALM      29.96F
MANTEO         LGT RAIN  34  30  86 CALM      29.98F
CAPE HATTERAS  LGT RAIN  34  32  92 NE6       29.94F FOG
TARBORO*       FLURRIES  34  31  90 SE5       29.92F
GOLDSBORO      LGT RAIN  32  32 100 NE5       29.84F FOG
WASHINGTON     RAIN      32  31  96 E6        29.93F
GREENVILLE     RAIN      32  32 100 E7        29.93F
NEW BERN       FRZ RAIN  33  30  88 E8        29.91F FOG
WILMINGTON     LGT RAIN  36  34  92 NE9       29.88R FOG
$$

VAZ048-260400-
ELSEWHERE

CITY           SKY/WX    TMP DP  RH WIND       PRES   REMARKS
HARRISBURG PA  CLOUDY    25  16  68 CALM      29.93F
BALTIMORE      CLOUDY    32  16  51 SE6       29.95F
ANNAPOLIS      FAIR      32  24  72 SE6       29.96F
ANDREWS AFB    FAIR      32  18  57 SE6       29.94F
PHILADELPHIA   CLOUDY    31  20  63 CALM      29.98F
HENDERSON NC   CLOUDY    37  21  53 SE5       29.87F
GREENSBORO     SNOW      32  31  96 SE5       29.81R VSB 1/2
ROCKY MOUNT    LGT SNOW  33  31  92 VRB5      29.90F FOG
$$

VAZ100-260400-
MARINE

STATION/POSITION TIME  TEMP    WIND        PRES    WAVE   SWELL
                       AIR SEA DIR/SP/G            HT/PER HT/PER
                 (UTC) (F)     (DEG/KT/KT) (MB)    (FT/S) (FT/S)
BRANDYWINE LGT   0300   34 29   CALM  /  1 1015.7F
CAPE MAY NJ      0300   32 31   20/  1/  2 1015.2F
LEWES DE         0300   33 31   80/  5/  5 1015.2F
15NM E FENWICK I 0300   35 34              1016.0R   2/10
OCEAN-CITY-INLET 0300   33 33  190/  2/  3 1016.0F
WACHAPREAGUE VA  0300   32 34  170/  3/  3 1015.1F
THOMAS POINT MD  0300   32 32  160/  9/  9 1015.6F
COVE POINT MD    0300   31     110/  4/  4 1014.5F
SOLOMONS ISLAND  0300      33                N/A
BISHOPS HEAD MD  0300   31 33   70/  4/  5 1014.2F
CAMBRIDGE MD     0300   31 32  100/  3/  3 1014.8F
LEWISETTA VA     0300   32 33              1014.4R
RAPPAHANNOCK LGT 0300          130/  8/  9   N/A
STINGRAY PT      0300   32     160/  8/  8   N/A
YORK RVR RNG VA  0300   34     160/ 11/ 12 1013.9F
YORKTOWN VA      0300   35 33  150/  8/  9 1014.3F
DOMINION TERM VA 0300   35     140/  8/ 10 1014.5F
KIPTOPEKE VA     0300          140/  9/ 11   N/A
CHES BAY BRIDGE  0300   34 33  110/  5/  8 1014.9F
CAPE HENRY VA    0300   34     130/  8/ 10 1013.6F
CHESAPEAKE LGHT  0200   36     150/  6/  7 1017.4R
WILLOUBY STN VA  0300          140/ 10/ 11   N/A
S CRANEY ISL VA  0300          140/  9/ 11 1014.7F
CAPE HENRY BUOY  0300      36                N/A     2/ 8   2/11
1ST LANDING BUOY 0300   34     140/  6/  6 1015.1F
OFFSHORE WE BUOY 0300      38                N/A     3/ 9   3/ 9
64NM E OF VA BCH 0300   44 53   60/  8/ 12 1015.7R   4/ 8   3/ 8
DUCK PIER NC     0300   34 35              1014.5F
44100 DUCK FRF   0200      36                N/A     3/ 8   2/11
44056 DUCK FRF   0300      35                N/A     3/ 8   2/12
OREGON INLET NC  0300   34 36  330/  3/  5 1015.6F
HATTERAS NC      0300   35 40   10/ 14/ 16 1014.6F
CAPE LOOKOUT NC  0200   37     350/ 11/ 12 1014.5R
$$


USA.gov is the U.S. government's official web portal to all federal, state and local government web resources and services.